This demonstration page uses our WeatherBlox Daily Observations layout. Learn more.

Left ArrowRight Arrow

39.01783, -85.05884

Hourly Observations for November 30, 2021

Temp ( °F °C ) Dew Point ( °F °C ) Humidity (%) Winds ( mph kmh ) Pressure ( in mb ) Visibility ( mi km ) Precip ( " mm )
12:52 am 00:52 Mostly Cloudy 37 2.8 17 -8.3 44 44 SSW 12 19 29.94 1014 10 16 N/A
1:52 am 01:52 Mostly Cloudy 37 2.8 17 -8.3 44 44 SSW 12 19 29.92 1013 10 16 N/A
2:52 am 02:52 Partly Cloudy 38 3.3 18 -7.8 44 44 SSW 12 19 29.91 1013 10 16 N/A
3:52 am 03:52 Mostly Clear 38 3.3 19 -7.2 46 46 SW 10 17 29.91 1013 10 16 N/A
4:52 am 04:52 Clear 38 3.3 20 -6.7 48 48 SW 12 19 29.91 1013 10 16 N/A
5:52 am 05:52 Mostly Clear 37 2.8 22 -5.6 54 54 SW 9 15 29.92 1013 10 16 N/A
6:52 am 06:52 Mostly Cloudy 38 3.3 24 -4.4 57 57 SW 10 17 29.94 1014 10 16 N/A
7:52 am 07:52 Partly Cloudy 37 2.8 25 -3.9 62 62 SW 8 13 29.97 1015 10 16 N/A
8:52 am 08:52 Mostly Cloudy 39 3.9 27 -2.8 62 62 SW 8 13 29.99 1016 10 16 N/A
9:52 am 09:52 Mostly Cloudy 45 7.2 31 -0.6 58 58 W 10 17 30.02 1017 10 16 N/A
10:52 am 10:52 Mostly Cloudy 47 8.3 31 -0.6 54 54 W 8 13 30.05 1018 10 16 N/A
11:52 am 11:52 Mostly Cloudy 50 10 32 undefined 50 50 WNW 9 15 30.06 1018 10 16 N/A
12:52 pm 12:52 Mostly Cloudy 52 11.1 32 undefined 47 47 W 10 17 30.04 1017 10 16 N/A
1:52 pm 13:52 Partly Cloudy 53 11.7 32 undefined 45 45 WSW 7 11 30.03 1017 10 16 N/A
2:52 pm 14:52 Partly Cloudy 53 11.7 32 undefined 45 45 WSW 13 20 30.05 1018 10 16 N/A
3:52 pm 15:52 Partly Cloudy 53 11.7 32 undefined 45 45 W 8 13 30.06 1018 10 16 N/A
4:52 pm 16:52 Partly Cloudy 50 10 32 undefined 50 50 W 7 11 30.08 1019 10 16 N/A
5:52 pm 17:52 Mostly Clear 48 8.9 31 -0.6 52 52 WSW 6 9 30.09 1019 10 16 N/A
6:52 pm 18:52 Clear 45 7.2 31 -0.6 58 58 WSW 6 9 30.10 1019 10 16 N/A
7:52 pm 19:52 Clear 44 6.7 30 -1.1 58 58 WSW 5 7 30.11 1020 10 16 N/A
8:52 pm 20:52 Clear 40 4.4 30 -1.1 68 68 WSW 3 6 30.12 1020 10 16 N/A
9:52 pm 21:52 Clear 37 2.8 30 -1.1 76 76 SW 3 6 30.11 1020 10 16 N/A
10:52 pm 22:52 Clear 37 2.8 29 -1.7 73 73 N N/A 30.12 1020 10 16 N/A
11:52 pm 23:52 Clear 35 1.7 29 -1.7 78 78 N N/A 30.13 1020 10 16 N/A

Powered by AerisWeather